EW5738 Weather Reports


Display with metric or nautical units.
time (UTC)temp
F
wind
direction
speed
MPH
gust
MPH
rain 1hr
in
rain 24hr
in
rain mn
in
humidity
%
barometer
mb
20260904040143 88 291 7.0 14.0 0.00 0.00 0.00 29 1017.4
20260904034539 88 297 3.0 16.0 0.00 0.00 0.00 30 1017.6
20260904033035 88 295 8.0 15.0 0.00 0.00 0.00 30 1017.8
20260904031532 89 290 6.0 11.0 0.00 0.00 0.00 29 1018.0
20260904030028 88 285 8.0 18.0 0.00 0.00 0.00 29 1018.3
20260904024524 89 271 7.0 17.0 0.00 0.00 0.00 29 1018.5
20260904023022 89 288 3.0 8.0 0.00 0.00 0.00 31 1018.7
20260904021523 89 311 5.0 11.0 0.00 0.00 0.00 31 1019.0
20260904020018 88 269 4.0 13.0 0.00 0.00 0.00 31 1019.2
20260904014515 88 321 2.0 6.0 0.00 0.00 0.00 33 1019.4
20260904013015 87 360 3.0 7.0 0.00 0.00 0.00 35 1019.8
20260904011609 87 296 7.0 10.0 0.00 0.00 0.00 36 1020.0
20260904010009 86 348 2.0 11.0 0.00 0.00 0.00 35 1020.4
20260904004502 85 223 1.0 11.0 0.00 0.00 0.00 40 1020.6
20260904003100 84 207 5.0 12.0 0.00 0.00 0.00 39 1020.8
20260904001532 83 318 3.0 8.0 0.00 0.00 0.00 41 1020.9
20260904000032 82 291 4.0 8.0 0.00 0.00 0.00 44 1021.0
20260903234629 81 286 5.0 10.0 0.00 0.00 0.00 45 1021.1
20260903233020 80 281 5.0 11.0 0.00 0.00 0.00 45 1021.2
20260903231516 79 296 5.0 10.0 0.00 0.00 0.00 48 1021.2
20260903230012 77 293 2.0 5.0 0.00 0.00 0.00 57 1021.3
20260903224508 74 303 0.0 4.0 0.00 0.00 0.00 66 1021.4
20260903223008 71 143 2.0 6.0 0.00 0.00 0.00 71 1021.4
20260903221559 69 143 1.0 6.0 0.00 0.00 0.00 74 1021.3
20260903220054 67 314 0.0 5.0 0.00 0.00 0.00 80 1021.1
20260903214551 64 28 1.0 4.0 0.00 0.00 0.00 86 1021.0
20260903213044 61 162 1.0 4.0 0.00 0.00 0.00 90 1020.8
20260903211543 60 269 1.0 3.0 0.00 0.00 0.00 92 1020.7
20260903210051 59 178 1.0 4.0 0.00 0.00 0.00 93 1020.5
20260903204554 58 142 0.0 2.0 0.00 0.00 0.00 94 1020.3
20260903203038 57 223 1.0 3.0 0.00 0.00 0.00 93 1020.2
20260903201532 57 46 0.0 2.0 0.00 0.00 0.00 92 1019.9
20260903200028 57 167 2.0 4.0 0.00 0.00 0.00 93 1019.8
20260903194525 57 299 1.0 3.0 0.00 0.00 0.00 92 1019.6
20260903193023 59 283 0.0 2.0 0.00 0.00 0.00 92 1019.5
20260903191521 58 46 0.0 2.0 0.00 0.00 0.00 92 1019.3
20260903190017 59 295 0.0 2.0 0.00 0.00 0.00 91 1019.2
20260903184516 59 178 0.0 2.0 0.00 0.00 0.00 91 1019.0
20260903183011 59 300 1.0 2.0 0.00 0.00 0.00 91 1018.9
20260903180106 60 269 0.0 3.0 0.00 0.00 0.00 91 1018.8
20260903174513 60 188 2.0 4.0 0.00 0.00 0.00 91 1018.6
20260903173003 61 186 2.0 3.0 0.00 0.00 0.00 91 1018.6
20260903171501 60 178 0.0 3.0 0.00 0.00 0.00 90 1018.6
20260903170059 60 206 1.0 3.0 0.00 0.00 0.00 90 1018.6
20260903164557 60 295 0.0 3.0 0.00 0.00 0.00 89 1018.6
20260903163055 61 206 1.0 5.0 0.00 0.00 0.00 89 1018.5
20260903161554 61 174 2.0 5.0 0.00 0.00 0.00 90 1018.7
20260903160105 60 213 1.0 2.0 0.00 0.00 0.00 90 1018.6
20260903154551 61 89 0.0 2.0 0.00 0.00 0.00 90 1018.7
20260903153049 62 269 0.0 2.0 0.00 0.00 0.00 90 1018.7
20260903151547 62 279 0.0 2.0 0.00 0.00 0.00 90 1018.7
20260903150049 62 303 0.0 2.0 0.00 0.00 0.00 91 1018.8
20260903144553 61 300 1.0 3.0 0.00 0.00 0.00 90 1018.8
20260903143043 61 295 2.0 4.0 0.00 0.00 0.00 90 1018.6
20260903141539 62 1 0.0 3.0 0.00 0.00 0.00 90 1018.7
20260903140036 62 306 1.0 4.0 0.00 0.00 0.00 88 1018.7
20260903134539 63 314 2.0 3.0 0.00 0.00 0.00 88 1018.7
20260903133035 64 295 1.0 3.0 0.00 0.00 0.00 87 1018.6
20260903131535 64 295 1.0 2.0 0.00 0.00 0.00 86 1018.7
20260903130036 65 321 1.0 3.0 0.00 0.00 0.00 85 1018.7
20260903124532 65 321 1.0 2.0 0.00 0.00 0.00 85 1018.8
20260903123032 66 327 0.0 2.0 0.00 0.00 0.00 84 1018.7
20260903121529 66 290 1.0 3.0 0.00 0.00 0.00 83 1018.7
20260903120029 66 20 1.0 3.0 0.00 0.00 0.00 83 1018.5
20260903114528 66 340 1.0 3.0 0.00 0.00 0.00 82 1018.5
20260903113034 68 309 1.0 3.0 0.00 0.00 0.00 81 1018.5
20260903111525 67 319 1.0 3.0 0.00 0.00 0.00 81 1018.3
20260903110024 68 340 0.0 3.0 0.00 0.00 0.00 79 1018.3
20260903104524 70 1 2.0 3.0 0.00 0.00 0.00 76 1018.2
20260903103025 71 314 1.0 3.0 0.00 0.00 0.00 74 1018.2
20260903101528 71 340 1.0 2.0 0.00 0.00 0.00 75 1018.1
20260903100019 72 1 1.0 2.0 0.00 0.00 0.00 74 1018.0
20260903094518 72 1 1.0 5.0 0.00 0.00 0.00 74 1017.9
20260903093020 71 15 1.0 3.0 0.00 0.00 0.00 76 1017.8
20260903091509 71 1 1.0 2.0 0.00 0.00 0.00 76 1017.6
20260903090021 72 286 0.0 3.0 0.00 0.00 0.00 75 1017.6
20260903084507 72 344 1.0 3.0 0.00 0.00 0.00 75 1017.6
20260903083105 72 309 2.0 3.0 0.00 0.00 0.00 74 1017.5
20260903081506 73 327 1.0 4.0 0.00 0.00 0.00 72 1017.4
20260903080005 75 336 1.0 4.0 0.00 0.00 0.00 69 1017.3
20260903074503 75 1 2.0 5.0 0.00 0.00 0.00 68 1017.2
20260903073003 76 347 3.0 6.0 0.00 0.00 0.00 65 1017.1
20260903071611 77 1 5.0 8.0 0.00 0.00 0.00 63 1017.0
20260903064557 79 8 5.0 9.0 0.00 0.00 0.00 58 1016.8
20260903063057 80 317 3.0 12.0 0.00 0.00 0.00 56 1016.8
20260903061601 81 349 5.0 9.0 0.00 0.00 0.00 55 1016.8
20260903060052 80 331 1.0 7.0 0.00 0.00 0.00 60 1016.7
20260903054554 81 350 1.0 7.0 0.00 0.00 0.00 58 1016.7
20260903053051 82 1 2.0 4.0 0.00 0.00 0.00 56 1016.7
20260903051546 82 178 1.0 4.0 0.00 0.00 0.00 55 1016.7
20260903050043 82 340 2.0 5.0 0.00 0.00 0.00 54 1016.9
20260903044540 82 360 3.0 7.0 0.00 0.00 0.00 54 1017.1
20260903043039 82 127 1.0 6.0 0.00 0.00 0.00 54 1017.2
20260903041642 82 269 1.0 7.0 0.00 0.00 0.00 55 1017.3